Погода в Ситке

США     57°03′18″N   135°20′34″W
темп.,
°C
ветер,
м/с
пор.,
м/с
влажн.,
%
обл.,
%
осадки,
мм/ч
давл.,
гПа
погр.,
м
6 июля, ср
ср601:00+12юз1192100 0.1 1015324
04:00+11зсз1192100 0.2 1015160
07:00+12сз1192100 0.3 1014229
10:00+13з108593 0.8 1014425
13:00+15з218189 0.1 1014510
16:00+15з2179100 0.1 1013534
19:00+14з228782 0.1 1013362
22:00+12зюз119599 0.1 1013128
7 июля, чт
чт701:00+12юз119682 0.0 1013120
04:00+11зюз119394 0.0 1014151
07:00+11юз119295 0.1 1014268
10:00+12зюз1192100 0.1 1014359
13:00+12зюз1189100 0.1 1015420
16:00+13зюз128495 0.1 1015466
19:00+12зюз1188100 0.1 1015282
22:00+11юз1192100 0.2 1016107
8 июля, пт
пт801:00+11ю1192100 0.0 1016123
04:00+10ююз119283 0.1 101689
07:00+11ююв018797 0.1 1015190
10:00+13зюз1175100 0.1 1015505
13:00+12ююз1183100 0.3 1016239
16:00+13юз1181100 0.8 1015396
19:00+13вюв0185100 0.6 1015128
22:00+12св119091 1.4 101524
9 июля, сб
сб901:00+12всв118892 0.3 101534
04:00+11в229093 0.5 101546
07:00+11всв229190 0.5 1014111
10:00+13вюв128759 0.9 1014164
13:00+13юз118484 0.7 1014266
16:00+12ю119098 1.7 101473
19:00+12с119198 0.8 101439
22:00+12в1190100 1.1 101431
10 июля, вс
вс1001:00+11ююв119691 0.8 101566
04:00+11ююв1197100 1.2 101470
07:00+10в1295100 0.9 1014116
10:00+11в2387100 1.6 1013272
13:00+11всв3489100 2.4 1011367
16:00+10в3592100 5.5 1009310
19:00+10вюв2295100 2.8 1010142
22:00+11вюв2286100 4.4 101156